Theta_e
307 306 306 306 305 305 305 305 305 306 306 306 306 306 306 307 307 307 308 308 307 307 307 307 308 308 308 309 310 311 311 311 311 311 313 315 315 316 316 313 312 312 312 313 312 313 313 314 313 313 316 317 314 315 314 315 322 331 334 326 313 314 316 316 324 322 317 318 318 317 314 315 317 315 311 309 313 316 315 315 315 311 310 308 305 305 306 307
307 306 306 306 306 306 306 305 306 307 306 306 307 307 307 307 308 308 308 308 308 307 308 308 308 309 310 311 311 312 312 311 311 312 317 317 316 316 316 313 312 312 312 312 313 312 314 316 312 314 320 318 313 317 319 314 321 333 330 320 317 321 317 317 324 322 317 316 316 317 313 313 314 313 311 312 317 316 314 315 315 316 314 307 304 306 306 306
308 307 307 307 307 307 307 306 307 307 307 308 308 309 309 308 309 309 309 310 309 308 309 309 309 311 312 312 313 314 312 311 311 314 318 318 316 316 314 312 312 312 312 312 313 313 315 316 312 315 323 319 315 320 324 317 319 325 324 322 324 326 320 317 322 320 317 315 316 318 312 313 314 311 311 313 316 315 314 316 315 315 314 308 303 302 303 303
308 307 307 307 307 308 308 308 308 308 308 308 309 309 310 310 310 310 311 311 310 310 310 311 311 312 313 314 315 314 312 313 313 314 317 317 316 316 313 312 312 312 313 312 313 314 314 314 312 318 322 319 319 321 319 317 317 317 321 324 322 320 320 318 322 321 318 314 315 317 313 314 314 311 313 313 314 314 314 314 312 311 311 309 304 301 301 301
309 308 307 307 307 307 308 309 309 309 308 308 309 310 310 311 311 310 311 313 312 311 312 313 313 314 315 315 316 314 314 317 314 312 315 317 316 315 313 312 312 312 313 313 314 314 313 312 314 322 321 317 322 319 315 316 316 316 319 322 322 319 317 318 322 321 318 314 314 317 315 314 311 311 315 313 313 314 310 309 309 308 307 307 304 301 300 300
309 308 307 306 307 307 308 309 309 308 308 309 310 310 311 312 312 312 312 314 314 313 314 314 315 315 315 315 316 315 314 314 312 312 315 315 314 314 313 313 313 312 312 314 314 313 315 314 317 325 322 317 318 314 314 315 315 317 318 318 321 319 317 318 319 318 316 314 315 316 312 311 312 312 313 312 312 309 303 304 305 303 302 301 300 299 299 299
308 308 307 306 306 308 308 309 309 309 309 310 311 311 312 313 314 315 314 315 315 315 315 314 315 315 315 315 316 317 317 314 312 315 317 315 314 313 313 313 313 313 312 313 314 315 317 318 318 322 321 316 314 314 313 313 315 319 320 320 319 316 318 319 317 316 315 314 314 312 309 311 314 312 310 310 308 302 300 302 301 300 300 299 299 298 298 298
308 308 307 306 306 307 309 309 309 309 310 312 312 313 314 314 315 316 315 316 315 315 314 315 315 314 315 315 317 322 322 318 315 317 319 318 315 312 313 313 313 313 312 312 314 316 316 316 316 316 317 314 313 314 312 312 318 321 319 321 318 316 320 319 316 316 315 314 311 310 311 313 312 310 310 310 304 300 301 301 300 299 299 298 298 298 298 297
309 309 308 308 307 307 309 310 309 309 311 312 313 313 314 314 316 316 315 316 315 315 315 314 315 314 315 314 316 322 320 318 317 317 318 318 317 315 314 314 313 313 312 312 313 313 314 316 316 314 315 314 311 313 313 314 319 319 318 320 318 315 317 315 314 316 314 313 311 310 315 313 309 309 310 308 303 301 302 300 299 299 298 297 297 297 297 297
311 310 310 309 309 308 309 311 310 310 312 313 314 314 314 315 317 316 315 316 316 316 315 315 315 314 314 313 317 320 318 320 322 320 319 318 318 317 315 314 313 313 312 312 313 312 313 315 313 310 314 315 311 312 313 313 315 316 317 317 316 314 313 313 314 314 312 312 310 311 316 312 307 310 312 308 302 301 304 302 298 298 298 297 296 296 297 296
312 312 313 312 312 311 309 311 311 311 313 313 314 315 315 317 317 317 317 317 317 317 317 316 315 315 314 314 320 321 317 320 323 321 320 318 317 316 314 314 313 313 312 311 312 312 313 312 308 309 313 313 312 313 312 311 312 313 314 315 317 316 314 314 313 311 311 312 310 311 314 312 309 312 311 306 300 302 308 304 298 298 298 296 296 296 296 296
312 313 314 313 312 312 310 311 312 312 314 315 316 316 317 318 318 318 319 318 318 318 317 316 315 315 313 314 319 319 315 318 321 321 319 318 317 315 314 314 313 312 312 312 312 312 313 311 310 313 314 312 314 315 312 310 311 312 312 314 319 320 317 314 313 311 311 312 311 311 315 317 314 310 308 304 301 304 308 304 299 298 297 296 296 295 296 295
312 313 315 314 312 312 312 312 312 313 315 316 317 317 318 319 319 319 319 319 319 319 317 315 315 314 313 317 317 314 314 317 320 320 318 317 316 315 315 313 314 313 313 313 313 313 313 312 312 315 313 316 317 312 311 311 311 313 312 314 317 320 320 313 311 313 312 311 309 311 318 322 314 307 307 305 303 309 310 302 299 298 297 296 296 295 295 295
311 313 315 314 313 312 312 312 313 314 315 316 317 318 320 320 320 320 319 319 318 317 316 314 314 313 313 318 315 312 315 315 317 318 316 316 315 315 315 314 315 315 314 314 313 314 313 311 311 312 311 315 314 309 315 320 318 315 311 318 320 317 324 319 312 315 313 310 309 312 319 323 314 305 305 304 303 312 309 300 298 298 296 296 295 295 295 294
312 314 315 314 313 313 313 313 314 315 315 316 317 319 320 320 320 320 319 318 316 315 314 313 313 313 315 317 313 313 315 314 316 317 316 315 314 314 314 314 315 314 313 313 313 313 312 312 313 316 312 310 312 314 322 325 325 322 314 324 325 316 326 324 313 316 314 309 311 313 318 321 313 305 304 302 302 309 308 300 298 298 296 296 295 295 294 294
313 316 316 315 313 313 313 313 314 314 315 317 318 320 321 321 321 320 318 314 314 314 313 314 312 312 318 317 312 313 314 315 317 317 316 315 315 315 314 314 313 312 312 311 312 311 311 313 313 313 312 311 316 325 328 325 327 325 317 325 328 318 322 320 313 315 314 311 313 314 317 320 312 304 303 301 300 307 307 301 298 297 296 296 295 294 294 294
315 316 315 314 313 313 313 314 314 314 315 317 318 320 321 321 320 318 316 314 315 315 314 315 312 312 316 314 313 315 313 313 316 317 317 315 315 316 313 312 310 310 312 310 311 312 311 314 311 311 315 314 318 326 328 325 327 327 317 319 325 319 317 319 317 315 313 314 315 314 315 317 313 306 304 301 300 306 306 300 298 297 296 296 295 294 294 293
316 315 314 314 314 314 314 314 314 315 317 317 318 321 321 320 320 317 316 316 315 314 313 313 312 316 318 314 314 315 312 313 315 317 317 316 315 315 314 311 308 309 313 313 312 312 312 315 316 318 318 314 316 321 324 325 329 332 324 320 323 318 316 319 318 314 314 316 317 316 315 317 315 310 305 301 300 304 303 298 298 297 296 296 295 294 294 293
316 316 316 316 314 314 314 314 314 316 318 318 319 320 318 316 316 316 314 315 318 318 317 316 315 320 320 315 314 313 312 313 314 315 315 315 313 312 313 309 311 314 315 316 313 313 317 318 318 320 318 315 316 317 320 323 324 328 329 328 327 321 319 319 318 315 313 315 318 317 317 317 315 313 306 301 299 301 300 298 298 297 297 296 295 295 294 293
317 317 317 316 314 314 314 313 314 317 318 318 319 318 318 319 318 318 316 315 321 320 319 321 319 320 318 315 314 312 313 313 313 314 313 313 311 312 311 308 314 316 316 321 316 311 317 319 319 319 318 317 315 314 317 320 319 320 324 325 324 321 320 318 316 315 312 314 318 316 316 316 314 313 305 301 301 301 300 299 299 298 297 297 296 296 295 294
318 318 318 316 315 314 314 314 315 318 318 318 318 318 322 325 320 320 321 321 319 314 317 320 315 317 315 312 313 312 314 314 311 312 312 312 310 312 313 311 315 315 316 321 316 310 314 318 320 319 317 316 314 313 314 317 316 316 319 319 320 320 319 316 313 314 313 314 318 315 315 317 315 310 302 300 303 302 300 300 299 298 298 297 297 296 295 295
318 319 319 317 316 315 314 315 316 318 318 318 318 318 319 320 317 317 320 324 322 313 316 316 313 316 314 310 312 312 315 318 315 313 312 311 311 312 315 315 317 317 316 317 315 313 315 318 318 315 315 315 314 313 312 313 313 314 317 317 317 317 318 317 313 312 312 313 318 317 315 317 315 305 300 300 301 300 298 299 299 298 298 297 297 296 295 295
319 319 319 318 316 315 315 316 317 318 318 318 318 318 318 318 317 316 317 326 327 318 317 318 318 320 317 313 313 312 316 320 319 316 312 311 311 313 314 314 317 319 316 315 317 319 320 321 317 313 315 316 315 314 313 313 312 314 317 316 317 316 318 322 317 313 312 311 316 316 314 316 313 304 301 300 299 299 297 298 298 297 297 297 296 296 296 296
320 320 319 318 316 315 316 317 317 318 319 318 318 319 319 319 317 316 318 324 326 322 319 318 318 322 322 316 313 314 317 319 320 317 312 311 313 313 314 315 318 319 315 315 317 319 321 321 314 312 315 315 316 316 314 315 315 316 316 314 317 317 318 322 317 314 315 312 312 313 316 322 317 310 308 301 299 300 298 298 298 297 297 296 296 295 295 295
320 320 319 318 317 317 318 318 318 318 319 318 318 319 319 319 316 315 319 325 328 324 318 314 316 321 320 314 313 315 317 318 320 316 311 311 313 314 314 315 317 319 316 315 315 317 321 317 313 315 316 314 317 318 318 318 318 320 320 316 316 318 320 320 316 316 320 320 315 312 320 330 324 317 312 304 302 302 300 300 299 298 298 297 297 296 295 295
319 318 318 319 317 317 318 319 319 318 319 317 318 320 320 320 316 314 321 329 330 326 320 317 318 319 317 314 313 315 320 320 314 311 311 311 312 313 315 315 315 318 318 316 316 319 319 313 314 320 319 316 317 319 319 317 318 322 322 318 315 315 319 320 318 319 324 323 314 310 319 330 329 323 313 304 304 303 301 301 300 299 299 298 297 297 296 295
320 318 319 319 317 317 318 319 318 318 320 319 317 319 320 319 315 313 320 332 330 325 322 319 316 317 316 312 312 319 326 320 311 309 310 311 311 312 316 316 315 317 316 317 321 321 317 314 314 318 320 319 317 319 317 314 321 325 319 317 317 316 319 321 319 321 323 321 315 313 318 322 325 322 310 303 306 305 302 301 300 300 300 299 298 297 296 296
320 318 319 319 317 318 318 318 318 317 319 320 318 320 320 317 315 316 327 337 331 322 321 318 313 312 311 308 312 319 318 315 318 314 307 309 310 311 318 320 319 319 316 319 325 319 315 318 319 316 318 318 318 321 318 314 322 323 312 313 317 316 318 319 318 319 317 315 319 320 315 317 324 320 307 303 309 309 306 303 301 301 300 299 299 297 296 296
319 318 319 319 317 317 318 319 318 318 319 319 320 321 318 314 316 322 330 334 328 319 318 316 311 311 312 310 313 315 310 310 318 314 307 308 309 310 316 318 319 318 313 317 324 320 313 314 316 317 319 319 319 318 313 315 320 315 308 312 314 314 315 316 317 318 315 315 323 324 316 318 326 324 313 308 312 313 308 304 301 300 300 299 299 297 296 296
318 318 318 318 317 317 318 319 319 320 320 319 321 318 315 317 321 329 331 331 329 321 315 314 313 313 315 316 316 314 311 312 312 311 311 312 311 311 312 312 316 318 315 316 320 317 310 307 310 316 318 317 316 310 308 314 315 310 312 317 316 317 318 318 319 318 316 320 324 320 316 317 322 325 319 313 316 313 308 305 302 300 299 299 298 297 296 295
319 318 318 318 317 317 319 319 319 321 320 319 319 315 317 324 327 333 332 328 326 321 315 314 313 314 317 320 320 314 312 312 311 313 314 312 312 314 313 312 317 321 320 319 319 315 311 310 312 314 313 312 314 310 307 308 307 311 321 321 319 321 318 319 322 318 319 326 321 312 312 314 318 327 323 315 315 311 307 306 302 300 300 298 298 297 296 295
319 319 318 318 317 317 319 320 319 321 319 317 316 315 322 328 327 333 331 325 325 322 320 318 313 315 318 319 318 314 314 315 312 314 317 314 314 315 316 318 320 325 325 321 320 317 315 316 314 311 309 311 318 316 310 307 307 314 322 320 322 325 320 321 324 320 321 323 313 308 312 313 315 322 319 317 316 310 307 306 302 300 300 298 298 297 296 296
319 319 318 318 318 317 319 319 319 320 318 315 316 319 326 330 330 331 329 326 327 320 318 319 315 316 318 318 317 312 313 316 313 314 315 314 316 314 315 317 317 325 327 320 319 319 319 318 312 311 312 312 318 318 316 315 312 314 318 319 324 326 326 331 326 318 321 318 309 308 312 314 316 317 314 314 312 306 304 305 302 300 299 298 298 296 296 296
319 319 318 318 317 317 319 319 319 320 317 315 319 323 326 331 331 331 329 327 325 319 317 317 315 316 317 319 319 314 316 317 313 314 314 313 316 317 317 315 312 321 324 318 318 320 323 323 316 315 316 314 314 316 319 319 313 313 317 317 321 326 330 334 328 326 326 319 310 308 313 320 321 316 308 305 303 300 301 302 301 301 300 298 298 296 296 295
320 319 318 317 317 318 319 319 320 320 317 317 322 324 327 330 330 331 331 327 324 321 316 314 315 317 317 317 316 314 317 318 312 314 315 315 317 318 319 316 313 318 322 320 320 317 319 324 318 313 311 311 313 314 316 316 314 314 314 315 319 324 326 322 318 319 320 318 314 311 315 320 317 310 302 300 299 298 299 299 299 301 300 298 298 296 296 295
320 318 318 317 316 317 318 319 321 319 317 319 323 325 327 328 328 331 331 326 324 319 314 315 318 319 318 317 315 312 314 315 314 315 315 314 316 317 318 318 314 314 317 321 322 318 319 322 315 310 310 310 311 313 313 315 318 314 312 318 318 316 321 322 312 308 310 317 318 314 316 316 312 310 305 301 302 300 298 300 300 300 299 298 297 296 295 294
318 317 317 316 317 317 317 319 321 319 318 321 324 325 325 326 328 330 328 323 319 316 317 321 320 319 319 318 317 314 314 316 314 315 316 315 316 316 316 319 315 312 314 319 320 320 324 324 314 310 314 309 305 311 313 312 315 316 317 320 315 310 318 323 318 314 315 319 320 315 316 316 315 316 310 304 308 306 300 300 299 298 298 297 297 296 295 294
317 316 316 316 317 317 317 319 320 318 319 323 325 325 325 325 325 326 325 319 315 316 321 325 322 320 320 319 318 314 314 317 314 314 316 315 317 318 315 317 316 312 312 314 316 318 321 323 316 310 313 310 305 312 315 309 309 315 317 315 315 318 321 319 318 322 321 321 323 317 313 314 316 317 315 311 313 311 303 298 298 299 298 297 297 296 295 294
316 317 317 317 316 316 317 319 318 318 321 325 326 326 325 325 324 325 325 321 318 320 322 324 323 322 320 319 320 316 313 316 314 313 316 315 317 317 313 316 316 313 311 311 315 317 316 320 320 311 310 311 309 312 318 314 308 310 311 309 313 319 320 319 318 320 320 322 324 319 316 318 316 315 320 317 312 310 305 300 299 299 298 297 297 297 296 295
316 318 319 317 316 317 317 317 317 319 322 324 326 325 324 323 323 324 324 322 323 322 321 325 325 324 322 319 320 319 315 316 313 313 317 316 315 315 313 314 316 313 311 310 313 317 314 317 321 313 308 312 315 315 316 315 312 312 313 313 314 314 316 318 316 315 319 323 325 323 320 321 317 314 317 315 310 306 305 303 301 299 298 297 297 297 296 295
315 320 319 315 316 317 316 318 319 320 323 323 324 323 321 322 322 322 321 321 323 322 322 327 327 326 324 320 321 320 317 318 315 314 317 316 316 318 313 312 315 313 312 310 312 317 316 317 322 318 312 315 319 314 310 312 313 313 314 314 315 315 315 318 317 314 316 319 322 322 320 319 316 310 310 311 310 306 303 303 301 299 298 298 297 297 296 295
316 320 316 312 316 317 317 320 321 321 322 322 322 321 320 321 322 321 319 319 322 323 322 325 326 325 324 323 323 322 319 320 317 316 319 316 317 318 313 312 315 311 312 314 312 315 318 319 322 321 317 316 314 308 305 309 311 312 314 314 314 314 316 319 319 317 316 315 315 317 319 318 311 305 306 308 307 304 302 301 301 299 299 298 297 297 296 295
318 316 311 310 315 317 318 322 321 320 321 320 321 321 320 321 321 320 320 319 321 323 322 323 323 323 324 323 323 322 320 321 318 318 321 319 317 316 312 314 314 311 314 317 313 314 316 319 320 320 319 316 310 307 306 307 310 313 314 314 314 314 316 318 317 318 319 317 315 315 318 318 309 304 305 305 302 302 301 301 300 300 299 298 297 297 296 296
314 312 309 310 313 315 319 322 321 320 320 319 319 320 319 320 320 320 320 319 320 322 322 322 322 323 325 323 322 322 321 322 321 318 320 321 317 312 310 313 313 313 315 315 315 316 315 319 321 320 321 319 315 313 311 309 311 315 316 314 313 314 316 315 314 315 317 317 317 317 317 317 312 305 304 303 301 302 300 299 300 300 299 298 297 297 296 296
313 312 310 310 310 312 317 318 318 319 319 318 320 320 319 318 318 319 320 320 321 322 322 322 321 322 323 321 321 321 320 323 324 319 318 319 315 309 309 312 314 316 314 312 315 317 316 320 320 319 322 323 322 321 318 315 313 313 315 313 313 313 314 314 315 316 316 315 315 316 316 316 313 308 307 306 303 304 302 299 299 300 299 299 297 297 297 296
317 316 312 310 310 311 313 313 315 319 319 319 319 319 319 319 317 317 318 319 320 320 321 321 320 321 321 320 321 321 319 320 322 320 319 319 315 309 308 310 313 315 313 312 316 317 317 318 317 318 321 321 321 320 316 316 317 315 315 315 313 312 311 314 317 317 316 315 315 315 315 316 315 311 312 310 306 307 306 301 300 300 299 299 298 297 297 296
317 317 313 312 312 312 312 312 314 317 318 319 319 317 319 319 318 317 317 318 319 318 319 319 319 321 321 320 321 322 320 319 319 320 319 318 315 309 306 309 311 312 312 313 315 316 317 318 317 317 318 317 318 316 312 315 318 317 316 315 314 312 311 313 315 316 317 317 316 316 315 316 315 313 314 314 309 308 306 303 301 299 298 298 298 298 298 297
312 314 312 312 314 314 312 312 312 314 317 318 316 316 318 318 318 318 317 316 316 317 319 318 318 320 320 320 321 320 319 320 319 318 317 316 314 312 310 310 308 309 313 314 314 315 316 317 317 316 316 316 316 315 313 314 315 316 317 316 314 312 311 312 313 313 316 316 316 316 316 316 315 313 313 313 310 309 307 304 301 300 299 298 298 299 299 298
309 311 308 309 313 313 312 312 312 313 315 316 314 314 316 317 317 317 316 315 315 316 318 318 317 319 319 319 320 318 317 319 319 317 316 315 315 315 315 313 309 308 313 314 312 313 314 316 316 314 316 316 315 314 313 312 313 314 315 316 315 312 310 310 311 311 313 314 314 314 315 314 313 313 313 309 306 306 306 303 302 301 300 299 299 299 298 297
309 310 309 309 310 310 311 311 312 313 312 312 313 311 312 315 316 315 314 315 315 314 315 316 315 316 317 317 318 316 315 317 317 315 314 314 314 314 313 314 312 308 310 311 310 309 312 315 313 312 315 316 314 313 311 310 312 312 313 314 313 311 310 310 311 311 311 312 311 311 312 312 311 313 312 308 304 305 305 304 303 302 301 301 299 298 297 297
301 301 305 311 310 307 309 311 311 312 311 310 312 310 309 311 313 313 312 312 313 313 313 314 314 313 313 313 313 313 313 315 316 314 313 313 314 313 312 315 314 310 309 309 309 310 311 311 311 313 317 317 313 312 311 308 309 310 312 312 310 310 311 311 310 310 311 312 311 310 311 311 309 309 307 304 304 304 305 304 303 302 301 301 301 300 299 298
298 299 303 311 311 307 308 309 308 310 310 309 309 309 309 310 310 311 311 310 312 312 311 313 313 310 311 311 311 312 313 314 315 314 312 312 313 312 313 314 313 312 310 308 309 310 310 311 313 314 316 315 309 307 309 309 311 313 313 313 313 311 311 310 309 308 308 310 311 311 311 311 309 305 304 304 304 304 305 304 304 303 301 299 300 300 300 299
Wind_Speed
1 2 3 4 4 4 4 3 4 4 3 2 2 1 1 1 1 1 2 2 3 3 4 4 5 6 6 8 9 11 12 13 11 7 4 0 3 5 3 2 3 3 3 3 1 1 2 5 6 7 4 3 4 2 2 3 2 4 3 3 2 2 1 4 6 5 3 1 3 3 2 3 2 3 2 1 2 3 3 4 4 4 2 4 10 15 17 16
1 1 2 3 4 4 4 4 4 4 3 2 2 1 1 1 1 1 1 3 3 4 4 5 5 5 6 8 9 11 13 13 7 4 3 3 6 5 3 3 3 4 4 3 2 2 3 2 4 6 6 3 3 2 2 2 3 3 3 3 1 4 2 4 6 4 2 0 3 3 2 2 2 1 2 2 5 6 5 5 4 5 4 7 16 19 20 21
2 2 2 3 3 3 3 3 3 3 2 2 2 1 1 1 0 1 1 3 3 4 5 5 5 5 6 7 9 11 13 10 3 3 3 5 8 5 3 4 4 4 3 2 3 4 5 3 3 5 4 3 2 2 3 3 2 1 3 3 3 5 3 3 4 5 4 1 2 2 1 1 3 2 1 1 6 5 2 5 2 4 5 6 11 18 22 24
2 3 3 3 3 2 2 2 2 2 2 1 1 1 0 1 0 0 1 3 3 3 4 5 5 5 6 7 8 10 11 7 2 0 3 5 7 5 3 4 4 4 2 3 4 5 6 5 6 5 4 3 3 3 3 3 1 2 3 3 4 3 1 3 5 5 4 2 2 1 1 3 2 2 1 2 3 4 1 4 1 3 5 5 6 13 19 22
3 4 4 4 3 2 3 2 2 2 1 1 0 0 1 1 1 1 1 3 4 3 4 5 5 5 6 6 7 8 8 6 1 2 2 3 5 5 3 3 3 3 2 4 5 6 5 5 6 6 4 2 4 4 1 2 1 1 1 3 4 3 1 3 5 4 3 3 1 1 3 3 2 2 2 3 2 3 2 3 2 3 4 5 6 9 14 17
4 5 6 5 4 3 4 4 2 2 2 1 1 1 1 1 2 2 2 3 4 4 4 5 5 5 5 5 5 5 5 2 3 3 2 3 4 4 3 3 3 3 2 4 6 5 4 5 6 4 3 3 2 3 0 3 2 1 1 1 3 3 2 2 3 3 4 3 2 3 2 1 2 2 2 3 2 1 5 5 6 7 7 7 9 10 11 13
5 6 7 6 6 5 5 5 4 3 2 2 1 1 1 2 2 3 3 4 5 4 5 5 5 5 4 4 4 4 4 2 5 5 5 3 4 4 3 3 3 3 2 4 5 4 4 5 4 3 4 3 1 2 1 3 4 3 1 2 1 4 4 3 2 3 4 3 5 1 1 2 1 3 1 2 2 4 6 7 10 10 11 12 12 11 10 11
5 6 7 7 7 6 6 5 4 4 3 3 2 1 2 2 2 3 3 5 5 5 5 5 5 4 3 2 2 4 2 4 5 5 6 4 4 5 4 3 3 2 2 3 4 5 4 4 3 4 3 1 3 2 1 2 4 3 2 2 1 3 5 4 3 4 4 5 3 1 2 5 4 2 1 2 4 5 4 7 9 9 12 14 11 11 11 12
6 7 7 7 7 7 6 6 5 5 4 3 3 2 3 3 3 3 4 5 6 5 5 5 5 3 2 2 5 3 3 4 3 3 4 4 5 5 4 4 3 3 3 3 4 6 3 2 3 4 3 2 3 3 0 0 1 2 4 2 2 3 5 4 4 4 3 3 2 2 5 3 2 1 2 2 3 4 4 7 7 8 11 10 9 10 11 13
7 6 7 7 6 6 6 6 6 5 4 4 3 3 3 2 3 4 4 5 5 5 5 4 3 2 1 2 6 1 4 2 1 2 3 4 4 4 5 4 3 3 5 5 6 7 3 5 5 5 5 3 3 2 0 2 1 3 3 2 4 4 5 2 3 3 1 3 3 4 5 2 2 1 2 1 3 3 5 8 7 8 10 9 8 9 11 13
7 6 7 6 5 6 6 6 6 5 5 4 3 3 3 3 3 4 4 4 4 4 5 3 2 1 2 4 5 3 4 2 2 2 2 3 3 3 4 4 3 3 6 6 7 7 3 7 10 6 2 2 2 1 1 2 2 2 1 3 6 5 5 2 3 4 2 1 4 6 3 2 2 2 2 1 4 3 6 8 7 9 7 7 8 8 10 12
8 5 6 7 6 6 6 6 6 6 5 3 3 3 3 3 3 3 3 4 4 4 4 2 2 2 2 2 3 7 4 3 3 2 2 3 3 4 4 4 4 4 5 5 6 7 4 9 12 6 0 4 3 1 1 2 3 1 3 3 7 8 6 4 4 4 2 1 2 4 1 4 3 3 2 2 4 4 8 7 7 7 5 6 6 6 8 10
9 6 7 10 8 6 6 6 6 6 5 3 4 3 2 3 3 3 3 4 4 3 3 2 2 4 3 1 4 8 8 6 4 3 2 2 3 4 5 5 5 4 4 4 6 7 5 9 10 6 3 5 2 1 3 3 3 1 3 3 5 7 5 4 3 4 2 1 1 0 2 4 1 2 4 4 3 5 8 6 5 5 4 5 5 5 7 10
10 8 9 10 9 7 5 6 6 6 4 4 4 3 3 3 2 3 3 4 3 2 2 1 4 5 3 3 4 5 8 8 7 5 3 4 5 7 7 6 5 5 4 5 6 6 6 8 8 6 3 3 2 2 4 5 3 1 1 2 2 2 4 5 3 4 2 1 2 2 2 4 2 0 6 6 1 6 6 5 5 4 4 4 4 5 5 8
8 5 8 10 8 7 6 6 7 5 3 4 3 3 3 2 2 3 3 2 2 1 1 3 5 6 2 4 4 3 6 7 7 7 6 8 9 8 7 7 7 8 7 7 8 9 8 8 8 5 1 2 3 4 4 4 3 3 1 3 3 1 5 7 4 2 2 1 4 4 2 5 3 1 6 6 3 7 7 4 5 4 5 5 4 6 5 6
8 8 12 12 8 6 7 6 6 4 4 3 2 2 2 2 2 2 1 2 3 3 3 4 6 5 1 3 2 2 4 4 6 7 8 10 9 7 9 10 10 10 10 10 11 10 8 7 4 2 2 2 4 5 3 3 4 3 1 3 2 1 3 5 3 3 2 0 4 4 1 4 2 2 5 6 4 6 7 4 5 4 5 5 5 5 5 5
12 12 13 10 7 7 7 7 6 3 2 1 2 2 1 1 0 1 2 4 4 4 4 4 5 3 1 2 1 2 3 4 6 8 10 9 7 9 12 9 7 9 9 8 8 6 5 5 1 1 3 3 3 4 3 2 4 3 1 2 3 2 2 3 3 3 5 2 1 3 0 6 3 3 6 7 4 6 7 4 4 4 4 5 4 4 5 5
10 9 8 9 9 9 8 9 6 3 2 1 2 0 1 1 1 2 4 5 5 5 3 2 3 1 3 2 2 2 2 5 6 8 9 8 7 10 10 6 6 8 8 5 3 3 3 3 2 1 3 2 2 5 3 5 4 3 2 2 2 2 3 3 3 2 4 3 2 3 2 9 6 4 6 6 4 6 6 4 4 4 4 4 3 4 4 5
8 8 9 10 9 10 10 10 7 4 3 2 1 4 4 2 1 2 4 4 3 2 1 3 3 2 3 2 2 3 5 7 6 7 9 9 9 10 8 7 7 7 5 2 1 1 1 3 4 1 1 3 6 7 8 7 5 6 5 4 3 3 3 4 4 4 2 2 4 5 5 10 8 3 5 5 5 5 5 4 3 3 3 3 3 4 3 4
10 10 12 12 10 10 11 10 7 6 2 3 2 5 3 2 2 2 1 2 5 5 3 5 6 2 2 1 3 7 7 6 3 5 9 11 12 11 6 5 6 5 3 4 3 1 3 3 3 5 7 8 10 9 6 4 6 5 4 4 4 4 4 4 3 4 1 2 4 5 4 8 7 3 4 4 4 4 4 4 3 3 3 3 3 2 2 2
13 12 11 12 11 10 10 9 8 7 2 4 4 4 3 3 2 2 2 4 9 9 6 6 6 4 3 3 8 10 6 2 1 4 11 11 12 10 1 2 5 2 1 3 3 2 3 4 8 9 8 7 7 7 5 4 5 4 4 3 3 4 5 5 2 3 1 2 3 1 2 8 5 2 4 3 3 3 3 3 3 3 2 2 1 1 2 1
15 14 12 11 12 11 10 9 9 7 3 6 5 3 3 3 3 1 2 2 8 11 9 5 3 6 4 4 9 9 3 1 0 3 10 10 6 6 1 3 5 4 1 3 3 2 2 5 11 8 5 6 3 5 6 4 3 3 3 3 3 3 3 4 2 3 2 2 3 1 2 6 2 3 3 3 3 2 2 2 2 1 1 1 1 2 2 2
17 16 13 13 13 12 11 9 8 7 6 8 6 5 3 2 3 2 3 0 5 5 5 5 5 6 5 3 8 9 2 4 4 5 11 10 3 4 5 5 5 5 4 5 5 5 3 6 9 6 8 7 3 4 6 3 2 3 3 3 4 2 1 3 3 3 2 0 2 0 3 4 1 2 3 3 2 2 2 2 2 1 0 1 1 2 2 3
21 19 15 14 12 13 12 7 6 7 9 10 10 9 5 4 6 4 2 0 4 4 4 7 5 5 6 4 10 13 4 4 4 5 13 12 4 3 5 5 5 5 5 8 8 6 5 5 2 6 7 7 5 4 6 5 2 3 5 6 4 4 5 5 2 2 2 2 0 2 3 4 1 2 1 1 1 1 2 2 2 1 1 1 1 2 3 3
21 19 17 16 13 14 13 6 7 11 9 9 13 12 9 6 6 5 1 1 3 5 3 4 3 4 7 6 11 11 2 2 3 4 13 13 7 4 3 3 4 5 7 6 6 5 6 4 4 7 4 5 6 4 6 7 3 3 5 10 9 7 7 4 1 2 2 3 2 2 1 4 2 2 3 2 2 1 1 1 1 1 1 1 1 1 2 2
21 19 19 19 15 16 12 5 10 13 9 10 12 12 12 9 7 5 2 3 4 4 1 3 3 6 8 5 7 7 3 3 3 2 9 11 6 4 3 2 1 4 6 5 3 3 3 1 4 6 5 6 6 4 6 7 5 2 5 9 10 7 5 5 4 3 1 3 2 1 3 3 4 3 4 4 3 2 1 1 2 2 1 1 1 1 1 2
24 22 21 21 18 19 12 4 10 13 6 10 12 13 14 11 9 6 2 3 5 3 4 1 0 5 7 3 3 7 2 3 2 3 4 5 3 3 3 4 2 2 4 4 1 2 3 3 3 5 6 5 5 4 6 8 7 3 3 5 7 7 7 6 6 4 3 2 2 2 2 2 3 3 2 5 5 3 3 4 4 4 3 3 3 2 1 1
28 26 24 23 22 23 14 5 13 15 6 6 13 17 15 12 10 4 3 1 4 2 4 1 1 3 3 1 3 5 2 1 4 1 1 3 1 2 1 6 6 5 3 5 4 3 3 6 6 7 5 4 5 4 8 11 5 4 1 6 6 6 5 5 5 3 1 1 3 4 1 1 4 3 1 2 3 4 6 7 7 7 6 5 5 4 3 2
29 28 27 25 23 25 18 8 11 14 9 8 16 18 16 13 8 4 4 3 2 2 2 1 3 2 2 3 3 3 1 2 2 2 2 3 1 3 2 5 6 6 2 2 5 2 1 4 6 7 5 5 4 1 6 10 4 3 6 7 6 6 5 5 4 3 3 1 4 5 3 3 4 4 1 0 3 6 6 6 7 7 7 6 6 6 5 3
30 29 29 27 24 27 24 16 14 12 8 12 17 19 17 9 4 4 3 5 1 2 1 1 2 1 5 6 0 2 2 2 1 1 2 1 2 5 2 2 6 6 1 4 1 2 1 1 2 4 4 5 4 3 1 4 4 6 7 7 6 6 4 3 2 3 3 2 5 5 4 3 3 5 3 4 4 5 7 6 6 6 7 7 7 6 5 4
30 29 31 30 30 32 24 16 20 15 9 15 19 17 12 3 3 4 6 3 2 1 2 2 0 3 8 8 2 1 3 2 0 3 2 1 2 4 2 2 4 4 2 3 2 3 3 1 2 1 2 4 6 5 4 3 3 5 4 5 4 3 3 3 4 3 1 5 5 3 2 2 4 4 4 4 4 4 9 10 11 12 10 9 7 6 5 4
31 29 32 33 32 34 23 16 24 20 12 19 19 10 5 2 1 7 5 1 0 3 4 3 2 4 7 4 3 3 4 2 1 3 4 3 3 4 3 4 4 3 1 4 2 3 2 3 2 0 1 4 6 4 4 3 2 3 4 5 4 1 2 1 2 1 3 5 3 2 1 2 5 6 6 5 5 5 5 6 12 15 13 11 9 7 5 4
32 29 32 34 33 35 28 19 24 22 18 21 14 3 3 4 7 9 7 2 2 2 3 4 2 4 7 4 2 3 3 2 3 3 2 3 4 4 3 2 5 4 1 4 3 1 2 3 1 3 1 3 7 6 3 1 2 4 4 5 4 2 2 2 3 1 3 4 2 2 1 1 4 6 5 5 4 3 2 2 5 10 12 11 9 7 5 5
33 31 32 34 35 36 31 23 21 24 24 19 9 2 4 7 8 6 8 6 1 2 3 4 4 5 6 4 4 5 3 2 5 4 2 3 4 5 4 4 4 3 3 3 3 4 3 3 4 6 2 4 8 6 5 6 5 4 3 4 4 4 4 3 4 3 3 2 2 3 1 4 4 2 2 2 1 2 1 2 2 4 6 7 6 6 6 6
34 34 32 32 34 35 34 27 24 27 26 15 6 6 8 11 7 4 7 6 2 2 3 3 6 5 4 2 3 5 4 3 5 5 3 4 5 5 5 6 7 4 4 4 2 2 3 5 5 2 1 5 8 3 4 7 4 2 2 4 2 3 4 2 3 5 3 1 2 2 3 4 4 1 2 1 1 1 1 1 2 4 5 5 5 6 6 6
36 35 32 32 35 37 38 33 30 32 25 10 6 9 9 10 5 3 5 4 5 6 6 3 3 4 4 2 2 5 3 2 4 4 3 3 3 5 4 5 9 9 6 5 3 2 2 4 4 1 2 2 4 3 3 3 3 2 2 3 4 2 6 4 1 1 3 1 3 2 3 3 1 1 2 2 1 2 2 3 5 7 6 6 7 7 8 7
37 32 29 32 36 39 40 37 35 34 20 7 8 10 7 6 4 4 4 4 5 8 9 4 4 5 5 4 4 7 4 2 4 4 3 2 3 6 6 4 7 13 11 5 2 3 4 2 3 1 1 1 1 3 4 3 3 5 3 5 3 1 4 4 1 2 3 3 4 1 4 3 2 2 2 2 2 5 5 5 5 6 7 8 9 9 9 8
33 25 21 30 39 39 39 40 38 27 10 4 11 11 6 4 3 4 4 4 5 7 7 6 6 6 6 6 4 6 6 4 5 5 4 3 4 6 9 5 5 14 15 6 1 3 4 1 4 0 2 1 2 3 4 4 2 4 4 3 3 3 1 2 2 1 1 3 4 2 3 3 5 4 2 5 9 9 7 6 7 10 11 11 11 11 10 8
23 12 8 22 37 38 39 40 31 15 4 5 11 11 4 2 2 3 5 5 4 5 6 5 3 3 4 6 4 5 6 7 7 5 4 4 4 5 8 5 4 10 13 8 4 2 3 3 3 1 1 1 2 2 4 2 1 3 2 1 2 2 4 2 2 3 3 3 3 3 2 3 6 6 8 13 13 11 10 8 11 14 14 13 12 12 11 9
14 5 2 16 34 38 38 32 17 6 5 6 9 7 2 2 2 3 5 5 2 2 4 3 3 3 3 4 3 4 6 6 7 6 4 5 4 5 6 4 3 5 5 5 4 1 3 3 3 1 1 2 2 3 6 7 5 2 3 4 1 1 2 1 1 2 3 3 2 3 4 4 4 3 8 11 10 11 13 13 13 12 13 14 13 12 11 8
9 6 3 17 35 39 32 18 7 5 6 7 8 7 4 3 3 3 5 4 1 0 2 3 4 3 3 4 2 4 5 5 6 5 4 5 4 3 3 2 5 7 5 3 4 3 3 3 4 3 1 3 4 4 3 5 6 5 5 7 6 5 4 2 4 1 2 2 4 3 6 6 3 2 4 4 4 8 11 11 11 12 14 15 13 12 10 8
6 5 2 15 37 40 23 7 6 6 6 6 6 5 4 3 3 5 3 2 2 1 2 2 3 3 3 4 2 4 5 4 6 5 4 5 4 2 1 3 4 9 7 3 4 3 3 3 4 3 3 4 4 3 1 2 3 3 3 4 6 5 5 5 6 3 2 1 1 2 4 6 2 2 3 3 4 5 7 8 9 12 14 14 12 10 8 8
4 3 1 12 33 34 16 7 9 8 6 3 2 2 4 3 4 6 5 4 3 2 2 2 3 4 4 3 4 5 5 4 5 6 3 3 3 2 1 3 3 7 4 1 1 1 2 3 3 1 2 2 3 2 1 1 2 2 3 3 5 4 3 4 5 3 3 4 3 3 4 5 2 1 2 3 3 3 6 9 9 9 9 10 10 9 8 8
2 2 2 8 21 20 9 7 11 11 8 4 3 3 2 1 5 7 7 8 5 3 4 3 3 4 4 4 5 6 7 4 5 6 4 3 3 1 2 2 4 5 1 1 2 3 3 3 4 2 1 3 3 1 1 2 2 3 2 2 5 5 4 2 1 3 1 5 7 5 7 5 1 1 2 2 1 3 6 7 7 6 6 6 7 8 8 6
2 2 2 3 7 6 3 3 6 9 10 8 7 7 4 2 3 4 7 9 5 4 5 3 3 4 3 4 3 4 7 5 3 4 3 2 2 2 3 2 4 4 2 1 2 1 3 3 4 6 7 6 5 4 5 3 2 2 1 3 6 8 9 5 2 3 5 4 8 7 8 5 1 2 2 1 2 3 5 5 5 5 5 6 8 9 8 7
3 2 1 1 0 0 1 1 1 4 9 10 7 7 9 7 1 1 3 6 4 4 4 1 3 4 2 5 5 4 6 3 1 3 3 3 2 0 1 2 4 3 2 3 5 2 1 1 4 7 8 6 4 4 3 5 5 4 5 7 9 10 11 8 3 4 6 3 5 10 7 5 5 2 3 5 4 5 6 6 7 7 7 8 9 8 7 6
2 2 3 3 1 1 1 1 2 2 5 9 6 4 9 10 3 1 2 3 3 5 3 1 3 5 5 7 6 4 5 3 2 3 4 3 2 1 0 2 3 1 2 3 3 3 3 2 4 4 7 3 2 0 1 3 5 7 8 9 10 8 10 10 8 8 6 5 9 9 6 6 11 7 7 7 6 6 7 8 9 9 8 7 6 7 7 7
0 1 1 1 1 4 4 4 5 3 4 8 4 2 7 10 7 5 2 1 2 4 3 1 4 7 7 8 6 4 4 4 3 4 4 3 3 2 1 3 2 2 2 3 3 3 4 3 2 2 6 5 1 2 1 1 2 4 6 9 10 10 12 13 14 11 7 7 14 8 7 11 12 6 9 10 10 10 9 8 7 5 5 6 6 7 9 8
1 1 1 2 1 3 4 5 7 5 4 5 3 2 6 10 10 6 2 3 2 2 2 4 5 6 6 6 6 6 6 5 4 4 3 2 3 3 2 2 1 3 3 4 2 2 3 2 2 4 5 8 4 3 3 3 2 3 5 9 11 11 11 13 15 12 10 12 12 3 6 12 7 6 10 10 8 7 5 4 5 5 6 7 7 8 8 8
1 1 1 2 2 1 3 5 7 6 3 2 3 3 5 8 9 3 2 4 4 1 2 5 5 4 4 4 5 6 6 5 4 3 4 3 2 2 1 2 2 2 2 4 2 2 2 0 2 4 3 7 5 4 4 4 5 4 8 13 12 6 7 11 14 10 9 13 9 2 5 10 5 6 8 5 4 5 4 5 6 6 6 7 7 7 7 7
3 1 2 4 2 1 2 4 5 5 3 2 4 4 4 7 7 4 2 1 4 4 4 5 5 5 3 3 5 7 5 5 5 5 7 6 4 4 3 3 5 4 3 3 3 3 4 1 2 3 3 5 2 4 4 3 2 4 13 18 13 7 8 11 10 9 11 13 11 8 9 10 5 5 4 2 5 7 7 7 6 5 6 7 8 7 7 8
3 2 1 4 2 1 2 3 3 4 3 3 5 4 5 6 6 6 2 1 3 5 4 5 6 4 3 6 10 9 6 6 5 5 6 5 3 4 3 4 7 7 5 5 3 3 5 3 2 3 4 3 2 2 4 4 1 6 13 15 13 14 14 9 5 9 13 12 10 10 9 6 4 6 6 5 5 6 7 6 5 5 7 7 8 8 8 8
Wind_Direction
248 228 235 242 245 239 236 248 251 255 250 238 249 252 263 265 278 312 323 321 314 315 329 333 344 348 343 346 343 341 338 334 330 335 350 68 137 131 108 77 101 101 117 138 96 86 51 38 20 23 54 56 15 349 15 19 51 55 82 80 59 170 163 171 182 192 158 289 272 327 51 108 316 314 307 321 14 333 323 304 299 318 300 65 32 20 24 27
267 261 260 258 250 239 230 233 249 253 234 231 237 229 236 233 285 324 307 312 313 316 333 336 347 346 341 345 341 343 337 331 337 12 41 133 148 141 127 108 118 112 115 132 103 86 91 36 0 34 50 48 351 340 26 8 47 78 117 69 215 200 202 186 177 189 184 240 258 299 45 142 233 265 345 335 302 336 349 301 347 343 318 29 21 25 35 40
288 302 292 280 264 246 230 221 243 251 211 208 208 186 188 186 231 339 320 313 316 323 331 333 339 340 342 341 344 348 336 335 10 39 52 125 147 148 139 132 129 117 97 109 116 91 107 121 67 60 47 51 357 351 36 9 22 129 112 73 239 214 232 221 196 204 207 205 268 294 83 191 228 210 351 296 284 332 340 282 356 343 317 8 13 23 31 38
290 297 294 289 279 273 267 230 224 230 195 193 187 148 146 134 162 337 338 313 309 321 324 324 329 334 338 339 350 349 340 2 45 299 78 123 148 144 139 142 131 116 90 107 124 99 100 101 73 66 59 49 336 13 54 346 351 133 104 146 211 187 229 220 206 219 215 200 217 233 353 299 229 176 187 175 302 331 273 261 281 325 337 8 9 21 28 35
275 290 294 289 284 279 285 265 223 211 196 196 244 341 33 27 288 281 320 312 304 310 316 317 321 328 334 342 355 350 359 30 275 223 110 140 157 146 144 145 132 126 112 116 130 110 96 83 63 52 53 53 343 27 51 310 84 104 52 169 182 151 244 233 201 218 190 152 200 267 311 294 152 149 187 164 257 295 333 337 51 52 46 43 24 25 28 34
270 286 289 284 280 267 272 271 250 217 206 210 244 295 350 316 310 304 302 317 308 301 310 310 316 327 334 345 351 2 42 44 247 206 185 188 169 160 152 154 143 137 125 122 128 113 85 54 55 57 50 54 20 49 340 309 42 82 316 244 205 182 224 233 183 205 162 115 250 242 286 310 48 330 202 152 230 303 20 38 75 69 72 66 48 39 31 31
267 277 280 281 276 269 271 268 249 217 206 206 230 263 289 296 324 321 311 315 306 304 315 315 320 326 337 350 350 29 70 254 251 209 221 211 198 198 166 181 166 152 164 133 121 113 90 63 74 125 83 53 170 125 81 351 41 90 248 292 204 184 218 223 171 195 176 203 250 225 344 285 337 306 246 88 26 45 45 58 73 69 63 58 50 42 38 36
257 265 274 277 271 266 264 257 241 218 208 205 229 260 277 298 324 321 313 310 309 316 321 320 324 332 349 18 48 22 9 247 242 216 227 220 219 211 191 212 188 183 186 153 140 140 117 85 131 151 83 10 181 131 89 14 38 92 217 275 137 199 244 258 265 254 228 237 244 107 277 249 210 197 73 18 36 60 62 56 58 65 57 50 47 40 38 37
252 260 270 272 264 260 257 247 232 220 216 212 231 261 270 298 326 317 311 312 317 319 323 324 319 328 331 69 83 19 282 226 221 220 220 217 220 216 218 221 200 202 164 158 162 150 150 158 185 180 141 182 156 123 187 202 319 200 180 234 261 282 293 296 275 256 234 242 155 168 281 287 209 154 68 347 54 77 70 55 43 54 54 46 44 39 36 35
248 262 269 270 261 254 248 237 228 220 219 221 237 268 278 304 318 312 311 314 318 318 324 323 309 317 225 117 89 349 253 168 166 200 195 207 211 209 219 211 200 204 160 154 163 151 167 190 172 149 133 128 138 119 205 144 169 188 159 229 252 294 301 284 268 274 252 248 172 207 276 322 268 55 110 345 50 87 71 52 35 50 51 43 42 39 38 37
241 256 259 262 259 251 242 230 224 217 219 226 245 268 284 306 310 314 318 316 320 325 325 322 311 288 166 126 124 213 234 177 182 154 162 190 192 196 202 203 200 199 170 151 169 167 164 173 148 119 126 140 126 60 280 181 114 121 74 292 292 324 305 305 323 308 330 250 176 184 242 314 342 56 152 345 36 75 76 56 34 49 45 39 44 40 40 36
235 249 262 264 259 251 240 227 220 216 218 226 253 269 287 302 307 315 323 323 325 327 321 315 281 200 138 88 188 221 229 199 188 146 145 163 172 189 186 191 182 179 181 156 175 177 146 162 141 102 168 147 128 34 209 173 90 96 44 329 309 348 336 330 355 315 355 29 181 168 273 338 25 105 221 339 67 72 66 58 32 45 38 36 42 39 44 34
231 229 247 254 257 258 243 228 219 215 216 233 262 273 288 297 312 321 326 327 322 321 311 291 234 177 130 350 232 224 226 213 201 184 165 163 167 171 160 163 154 150 171 150 164 169 157 169 141 103 119 113 133 193 110 58 47 286 41 35 316 353 338 320 2 316 343 73 303 63 298 312 17 140 296 319 109 82 58 52 31 37 32 34 36 39 44 33
230 227 235 241 254 259 241 229 219 211 225 259 270 268 288 304 309 316 328 322 320 316 297 215 186 157 130 250 238 219 225 222 224 222 206 194 164 141 133 132 129 128 137 135 145 147 151 158 122 98 99 82 140 128 50 13 20 333 16 43 357 357 286 300 345 337 18 89 348 93 218 271 204 200 329 331 92 103 77 53 38 33 33 31 30 38 39 34
231 241 245 247 255 250 237 231 213 205 237 264 269 267 286 301 306 325 340 330 355 55 128 140 165 144 90 273 247 213 219 214 216 214 199 187 163 135 124 123 116 112 114 116 121 120 128 134 104 91 94 6 81 88 24 349 13 30 343 307 347 144 270 309 342 13 73 355 10 97 206 277 172 146 342 353 49 97 89 57 43 34 32 35 29 36 34 28
222 222 235 246 252 241 236 220 190 199 238 256 270 268 280 298 317 352 47 67 80 95 105 131 156 139 93 266 214 199 212 196 197 195 182 176 169 144 129 122 111 108 109 104 107 109 100 95 75 74 122 59 78 90 48 1 342 358 77 247 272 190 277 324 342 359 27 13 5 59 207 287 139 127 349 17 54 86 86 63 47 40 32 39 32 33 33 24
216 216 226 240 247 242 227 188 165 204 222 284 283 266 297 310 322 121 114 99 100 92 91 132 141 121 249 213 190 246 208 175 178 177 176 171 167 153 135 116 100 105 103 97 103 95 54 52 61 332 57 66 103 99 67 327 285 311 27 228 248 213 221 310 303 339 11 83 19 27 60 265 232 98 14 18 48 81 84 66 51 49 37 40 36 37 34 27
217 220 229 237 237 238 210 174 175 195 144 1 294 274 69 78 127 146 146 126 102 75 62 117 118 81 265 211 187 213 139 149 158 159 167 155 150 155 139 118 113 105 86 65 66 63 23 28 71 65 29 31 123 114 158 224 215 191 174 196 254 244 219 266 261 279 354 21 347 346 298 268 268 68 30 7 37 77 83 71 61 52 42 45 38 44 38 31
219 228 244 248 238 228 199 177 183 160 123 297 237 106 86 72 72 155 157 139 124 115 193 212 157 148 237 239 162 128 116 132 142 149 152 143 143 141 121 111 108 98 93 90 63 92 84 56 68 139 200 195 185 178 197 203 169 165 171 153 178 226 244 237 239 257 301 17 295 273 261 267 277 14 25 3 30 70 81 68 62 47 39 44 38 41 38 39
218 221 238 247 240 222 193 178 177 149 143 258 163 118 106 82 39 304 227 188 211 192 170 198 188 178 250 257 141 133 124 120 130 156 153 151 143 124 95 77 72 64 107 150 164 132 110 126 178 217 207 198 200 196 185 154 127 129 131 137 179 212 259 243 233 288 294 143 262 251 249 267 275 348 7 351 23 56 60 57 54 44 35 27 35 40 35 51
223 222 230 237 233 216 188 178 168 145 178 227 174 146 170 167 142 266 251 251 245 229 229 218 201 239 256 165 156 152 133 85 30 157 159 161 147 136 102 52 96 85 241 156 142 71 88 163 219 228 202 188 194 178 147 123 117 111 138 174 223 213 247 253 218 306 335 178 259 6 286 269 267 17 4 4 43 41 25 51 50 32 26 4 20 29 21 41
225 228 231 232 227 210 188 182 168 155 205 217 195 201 234 203 163 179 173 276 269 236 230 234 219 256 250 168 174 165 117 100 287 213 173 160 152 171 167 93 139 175 203 129 117 78 100 214 235 226 152 119 105 142 155 165 152 127 129 162 242 225 253 282 280 329 11 181 251 23 302 268 252 66 34 34 63 56 16 49 44 3 1 344 11 28 27 37
219 222 228 233 225 204 186 180 171 173 211 212 206 211 230 215 162 136 125 120 292 247 209 206 204 226 221 211 191 172 159 182 187 230 187 159 149 188 145 130 157 144 150 180 163 156 182 243 240 188 134 127 94 111 133 135 164 165 144 166 235 217 198 270 277 311 358 132 243 244 300 277 167 90 56 55 84 92 48 55 49 350 263 306 326 358 22 39
222 219 223 233 222 192 178 172 181 206 220 225 230 218 195 171 164 157 122 47 285 274 224 204 195 199 196 200 183 176 197 198 175 206 185 164 138 155 159 153 142 137 188 200 181 183 215 245 196 125 140 159 144 126 141 150 218 227 197 200 219 199 206 230 262 299 341 8 292 151 317 303 207 180 134 104 132 84 29 53 54 355 294 312 341 3 15 20
228 220 218 227 214 179 166 167 209 215 216 229 234 214 182 172 172 169 128 24 286 289 280 210 196 204 187 155 166 172 172 220 223 201 177 170 150 137 178 152 136 187 198 176 171 220 248 231 132 111 126 155 149 172 184 173 194 270 226 210 212 206 209 215 84 32 21 336 285 154 245 292 294 229 199 177 155 119 26 53 40 321 323 345 17 15 8 9
225 220 215 223 209 176 167 191 219 208 203 229 229 199 183 183 170 168 115 38 276 264 236 193 180 182 173 145 159 147 78 256 257 114 158 175 168 123 149 148 82 202 180 141 160 224 243 207 132 137 140 149 163 214 219 168 143 272 243 206 203 191 175 166 141 121 146 247 280 113 174 245 310 286 199 169 152 174 183 152 231 260 276 262 252 306 333 353
221 218 216 221 205 182 181 203 194 180 190 234 215 187 187 182 170 180 81 12 274 199 130 225 197 156 167 168 158 138 165 246 98 78 138 166 182 86 139 179 132 197 167 126 216 241 176 136 111 142 137 149 181 228 217 158 137 233 250 156 161 166 171 171 159 168 220 251 314 357 144 199 287 278 202 158 151 184 205 198 219 226 218 221 225 239 249 270
221 217 215 217 204 191 193 181 171 175 197 210 183 179 179 172 172 164 75 318 270 112 110 254 73 105 132 79 78 116 204 271 110 212 348 92 169 58 148 202 170 173 165 149 215 266 146 164 179 164 146 180 206 218 187 159 153 236 165 110 131 148 156 147 142 171 305 336 288 302 82 207 262 269 336 134 185 227 214 200 206 207 205 204 207 216 219 226
221 216 213 211 204 198 203 210 183 190 207 172 165 173 167 165 170 89 76 225 251 87 88 134 122 64 65 95 45 60 47 20 105 246 0 86 106 61 160 204 146 144 131 136 209 258 98 196 190 156 156 201 209 256 182 167 177 190 124 95 80 74 80 89 110 116 47 10 245 245 195 209 269 274 305 89 245 237 207 200 206 202 204 203 201 205 202 204
219 214 211 205 198 198 206 224 216 197 189 168 163 163 157 156 143 100 208 230 131 96 103 107 150 123 122 133 339 0 72 20 36 37 31 96 30 36 119 154 97 121 52 14 265 250 325 289 186 143 166 184 137 55 119 145 144 144 112 78 63 46 47 53 63 87 61 279 250 241 215 207 267 271 222 196 232 202 168 182 205 203 209 210 208 204 196 195
218 212 209 202 196 196 198 218 216 197 175 171 160 152 150 106 67 162 220 239 78 124 129 114 186 139 146 149 172 179 100 29 292 115 113 143 61 47 94 127 80 77 12 336 301 306 347 348 258 185 144 124 101 63 37 58 106 115 93 95 95 19 20 31 2 49 130 250 256 281 290 215 231 260 244 227 245 192 168 179 186 191 204 204 203 203 193 191
218 212 209 205 198 196 196 208 204 192 177 170 156 142 143 95 193 210 227 353 119 198 154 158 196 164 166 137 102 155 129 106 187 130 139 150 151 169 174 175 154 85 309 233 234 331 297 229 244 177 155 137 115 83 45 22 31 86 96 119 119 11 24 11 298 215 221 246 265 300 283 213 232 250 251 233 231 217 198 192 182 184 192 194 195 196 188 187
218 213 211 208 201 198 202 207 199 190 178 164 152 108 112 163 220 216 213 220 214 198 122 117 117 138 152 132 126 171 133 154 181 147 138 124 151 210 250 187 155 123 186 196 172 206 275 281 199 144 233 184 153 147 137 170 190 160 150 143 141 127 118 233 260 263 259 257 297 295 227 220 261 266 250 213 213 226 228 258 203 188 188 189 189 185 182 190
218 213 211 211 205 203 203 204 200 191 175 158 147 116 143 206 226 188 193 215 182 64 76 105 100 112 147 170 208 181 142 192 176 136 123 122 144 212 234 219 183 116 103 140 170 180 200 277 202 171 207 187 176 178 154 145 155 180 171 139 149 157 159 210 216 205 243 259 304 305 223 190 202 248 266 217 285 308 291 294 278 224 200 183 175 175 184 197
216 211 210 209 207 207 202 200 201 190 174 157 158 175 187 218 224 157 184 197 143 85 58 86 104 119 178 230 244 201 177 200 168 132 153 167 175 200 196 202 198 159 133 162 206 163 170 264 246 211 271 171 177 187 116 116 132 201 134 114 170 190 150 152 187 170 173 268 276 244 228 223 192 199 312 25 16 318 279 268 227 225 208 172 176 189 195 205
207 205 206 205 207 208 202 199 200 189 175 158 176 192 209 219 198 164 186 161 155 145 116 94 96 126 200 222 229 224 208 150 155 153 191 198 217 209 190 206 196 183 175 167 185 159 140 279 284 18 12 156 172 178 114 122 164 153 137 175 220 190 115 112 213 84 80 256 257 199 231 284 302 263 320 53 82 214 216 224 206 208 196 178 196 203 202 207
195 196 200 203 207 206 201 199 197 189 179 171 194 200 215 220 179 165 175 131 143 139 133 183 190 155 190 198 200 205 188 140 160 172 193 201 229 197 191 238 198 191 200 177 186 195 147 254 289 116 150 274 201 134 78 36 125 126 177 208 194 124 91 105 201 12 48 246 268 223 224 245 175 239 311 61 238 228 206 203 198 197 192 194 204 206 206 205
190 191 199 206 205 201 198 198 192 188 188 190 204 212 206 202 184 150 149 137 132 133 152 201 199 173 185 190 191 180 172 180 172 174 184 195 243 190 175 213 200 196 205 179 171 234 141 177 287 287 163 277 9 110 88 11 66 127 186 191 112 142 154 99 166 203 201 243 284 280 241 233 195 205 202 198 218 214 193 188 193 194 194 198 204 207 208 199
187 189 214 207 201 198 197 194 188 184 210 200 205 219 193 157 222 173 154 147 118 138 177 202 187 165 174 175 163 151 172 182 165 171 184 182 237 201 171 191 203 203 205 175 169 222 130 170 249 296 210 175 39 142 169 206 19 63 98 115 76 151 167 152 162 168 182 220 280 289 270 239 223 202 182 196 207 192 174 184 201 199 195 196 200 201 202 194
176 185 272 187 190 195 191 188 188 190 212 208 206 216 166 120 234 220 183 168 119 145 186 189 170 157 160 172 162 155 177 180 165 177 202 186 207 215 195 193 168 180 190 171 182 179 121 180 212 287 314 161 178 213 191 181 170 123 133 159 177 113 120 194 212 119 139 180 209 282 283 258 243 203 185 199 204 185 179 188 195 196 195 199 201 200 197 188
167 198 204 164 176 183 178 177 205 204 206 220 218 221 210 154 169 203 214 204 186 155 136 155 178 167 151 168 186 174 165 168 175 181 209 206 199 208 211 186 154 146 123 147 206 195 162 175 171 166 179 189 225 256 213 187 173 162 176 181 183 170 133 177 245 182 114 183 181 211 272 264 240 199 200 214 212 195 192 188 184 188 195 201 204 199 191 184
167 193 188 160 169 170 167 182 213 194 217 223 209 208 191 156 161 181 203 226 226 148 97 141 177 168 168 169 172 172 155 161 186 188 210 214 197 190 318 16 140 154 138 153 214 188 141 122 133 175 209 209 247 293 263 216 158 142 200 190 174 176 151 174 225 212 136 223 146 118 273 274 255 219 224 238 233 202 189 185 186 194 198 200 200 194 188 191
171 164 107 162 169 168 169 203 196 196 228 208 142 177 173 167 178 172 177 195 191 154 148 181 180 186 200 172 148 170 170 174 189 187 201 209 194 207 304 23 136 159 137 99 187 148 132 123 133 216 298 332 325 329 1 23 102 162 227 174 164 192 169 181 210 157 159 206 134 105 261 267 270 256 257 260 246 188 182 191 196 200 202 200 195 191 194 195
127 109 48 169 177 177 182 197 193 203 211 173 143 182 178 188 175 169 181 188 178 156 168 185 185 191 195 161 155 178 183 188 198 193 190 186 179 136 39 76 138 148 126 124 169 194 200 165 137 143 330 344 338 316 267 282 220 211 212 154 185 184 125 104 127 97 213 204 151 174 245 245 233 341 5 5 188 187 201 202 199 201 201 197 193 196 197 182
122 80 17 171 180 184 190 189 192 201 198 192 191 180 173 223 194 182 186 182 175 166 168 186 184 159 149 152 151 175 185 188 188 186 187 188 170 64 32 66 111 126 159 104 80 218 218 190 164 178 201 214 217 215 213 200 173 199 182 168 200 188 164 162 142 165 231 189 149 199 241 249 283 3 4 316 172 205 224 210 211 217 200 193 197 199 192 176
162 122 117 159 81 159 168 99 145 199 195 195 197 182 185 198 219 1 187 183 183 161 143 118 144 129 144 170 160 178 197 195 116 154 176 188 183 74 7 98 90 116 153 68 46 59 95 266 220 216 231 225 206 219 193 133 143 189 195 187 200 198 187 181 159 197 206 154 194 227 224 240 259 215 208 235 204 209 220 198 208 221 207 204 203 193 183 179
175 138 159 156 119 188 187 137 189 212 190 187 193 187 192 197 190 83 185 191 179 156 123 50 156 165 183 177 173 190 190 172 143 162 166 171 169 154 171 110 83 84 119 59 25 77 100 279 255 254 278 281 113 89 27 112 164 189 189 197 206 198 185 190 208 212 158 143 241 236 164 217 246 209 194 221 209 213 223 206 208 214 206 203 191 173 175 179
186 96 177 124 109 187 199 189 181 173 173 182 181 152 184 193 189 183 178 120 168 171 163 231 203 187 180 175 179 184 172 176 195 180 157 151 155 141 78 81 67 0 69 63 15 81 124 245 238 210 277 278 98 71 7 97 151 186 191 208 211 196 185 197 217 215 161 195 249 243 170 220 243 203 191 209 203 205 211 205 201 194 184 180 172 177 185 184
125 56 339 6 45 169 166 148 150 156 171 169 154 152 182 187 187 185 141 112 161 222 187 195 211 194 173 171 173 174 180 186 190 185 166 139 140 134 95 106 82 4 64 88 41 90 142 237 208 169 254 267 234 180 170 167 210 240 226 226 223 206 191 201 221 220 204 229 254 249 199 234 240 175 195 210 202 193 185 172 165 158 166 175 184 194 193 187
136 149 138 60 44 67 98 121 143 155 156 154 174 181 181 188 184 162 83 133 150 235 218 185 181 161 140 145 169 193 194 160 131 150 151 122 110 120 142 171 146 35 70 116 119 189 175 209 153 147 239 264 233 176 166 181 200 231 251 246 234 206 198 219 228 223 221 240 246 158 214 248 238 178 198 206 169 159 167 180 173 164 167 171 185 197 193 190
91 95 124 113 100 100 117 120 134 147 160 194 193 163 161 194 182 133 53 169 147 161 199 172 131 108 119 165 205 213 187 132 126 153 159 157 169 181 188 182 159 141 145 151 147 169 183 189 75 121 218 257 230 161 168 138 121 248 258 252 237 207 219 228 223 211 214 229 231 218 234 248 225 176 181 167 159 176 196 195 174 176 183 176 184 194 194 198
89 46 77 107 106 149 134 115 123 156 181 184 175 159 157 177 165 141 138 265 173 162 173 159 133 115 159 206 220 217 186 158 156 161 164 154 146 170 181 170 161 156 159 164 152 153 169 169 131 152 204 266 2 117 135 94 63 254 252 248 233 225 230 230 219 216 213 213 218 224 235 239 181 164 179 188 187 200 212 199 175 191 196 188 194 197 199 208